Location: Charlottesville
(38.0290°N, 78.4770°W)
Time: 13:02:52
(UTC-05:00)

Envisat - Pass Details

Date: 09 October 2017
Orbit: 764 x 766 km, 98.2° (Epoch: 14 December)

Event Time Altitude Azimuth Distance (km) Brightness Sun altitude
Exits shadow 21:44:47 31° 302° (WNW) 1,330 4.6 -35.8°
Drops below altitude 10° 21:47:55 10° 331° (NNW) 2,310 6.0 -36.3°
Sets 21:50:23 0° 339° (NNW) 3,241 6.8 -36.8°
